www.pogodaiklimat.ru

Погода и климат >> Архив погоды >> Бангладеш >> Фени


ПОГОДА в Фени

  • Прогноз погоды в Фени
  • Монитор погоды в Фени

АРХИВ ПОГОДЫ в Фени

Время (UTC), дата Ветер
(напр.,м/с)
 
Видим.   Явления Облачность Т
(С)
Тd
(С)
f
(%)
Тe
(С)
Тes
(С)
Комфортность P
(гПа)
Po
(гПа)
Тmin
(С)
Tmax
(С)
R
(мм)
R24
(мм)
S
(см)
03 11.09 Ю 1 4000 м 9/4 540 м
[Sc diur, vesp Ac As]
+30.0 +24.0 70 +41 +44 опасность
перегрева
1005.6 1004.9 +26.0
06 11.09 Ю 1 3000 м 10/9 270 м
[St As op]
+30.0 +24.0 70 +41 +42 опасность
перегрева
1005.0 1004.3
09 11.09 Ю 1 4000 м 6/5 480 м
[Sc Ac trans]
+29.7 +25.0 76 +43 +48 опасность
перегрева
1002.9 1002.1
12 11.09 Ю 2 3000 м 10/8 270 м
[St As op]
+28.0 +26.0 89 +42 +42 опасность
перегрева
1003.3 1002.5 +31.6
15 11.09 Ю 2 3500 м 8/5 450 м
[Sc As op]
+27.5 +26.0 92 +41 +41 опасность
перегрева
1006.0 1005.2
18 11.09 Ю 1 3000 м слаб. дождь 10/9 270 м
[Frnb As op]
+25.9 +25.0 95 +37 +37 очень
душно
1006.5 1005.7 1
21 11.09 Ю 1 3000 м слаб. дождь 10/9 270 м
[Frnb As op]
+25.7 +25.0 96 +37 +37 очень
душно
1006.4 1005.6 14
00 12.09 Ю 1 3500 м {дождь} 10/8 270 м
[St As op]
+25.5 +25.0 97 +36 +36 очень
душно
1006.4 1005.6 29
03 12.09 Ю 2 3000 м слаб. дождь 10/8 240 м
[Frnb As op]
+26.5 +25.0 91 +38 +38 очень
душно
1008.8 1008.0 +25.5 2
06 12.09 Ю 1 3500 м {дождь} 10/8 270 м
[St As op]
+29.6 +26.0 81 +44 +45 опасность
перегрева
1008.0 1007.2 5
09 12.09 Ю 1 4000 м слаб. дождь 10/8 270 м
[Frnb As op]
+26.2 +25.0 93 +37 +38 очень
душно
1006.0 1005.2 17
12 12.09 Ю 1 3500 м {дождь} 10/8 270 м
[St As op]
+27.0 +25.0 89 +39 +39 очень
душно
1006.8 1006.0 +31.0 17
15 12.09 Ю 1 3000 м слаб. дождь 10/8 270 м
[Frnb As op]
+25.5 +25.0 97 +36 +36 очень
душно
1008.8 1008.0 5
18 12.09 Ю 1 3000 м слаб. дождь 10/8 270 м
[Frnb As op]
+25.3 +24.0 93 +35 +35 очень
душно
1010.0 1009.2 22
21 12.09 Ю 1 3000 м слаб. дождь 10/8 240 м
[Frnb As op]
+25.0 +24.0 94 +34 +34 очень
душно
1009.4 1008.6 16
00 13.09 Ю 1 3500 м {дождь} 10/8 270 м
[St As op]
+24.8 +24.0 95 +34 +34 очень
душно
1009.1 1008.3 26
03 13.09 Ю 1 3500 м слаб. дождь 10/8 270 м
[Frnb As op]
+25.5 +25.0 97 +36 +37 очень
душно
1010.9 1010.1 +24.8 8
06 13.09 ЮВ 1 4000 м {дождь} 10/8 270 м
[St As op]
+27.0 +25.0 89 +39 +40 очень
душно
1010.2 1009.4 11
09 13.09 Ю 1 3500 м 10/8 270 м
[Frnb As op]
+27.1 +25.0 88 +39 +39 очень
душно
1007.5 1006.7 2
12 13.09 Ю 1 3500 м {дождь} 10/8 270 м
[Frnb As op]
+27.0 +26.0 94 +40 +40 очень
душно
1007.8 1006.9 +29.2 2
15 13.09 Ю 1 4000 м 10/6 450 м
[Sc As op]
+26.8 +26.0 95 +40 +40 очень
душно
1009.3 1008.5
18 13.09 Ю 1 4000 м 10/8 270 м
[St As op]
+26.5 +26.0 97 +40 +40 очень
душно
1009.3 1008.5
21 13.09 Ю 1 4000 м 9/6 450 м
[Sc As op]
+25.8 +25.0 95 +37 +37 очень
душно
1008.9 1008.1
00 14.09 Ю 1 3500 м 10/8 270 м
[St As op]
+25.5 +25.0 97 +36 +36 очень
душно
1008.7 1007.9
03 14.09 Ю 1 4500 м 8/5 450 м
[Sc As trans]
+29.5 +26.0 81 +44 +48 опасность
перегрева
1009.9 1009.1 +25.2
06 14.09 Ю 1 5000 м 8/6 450 м
[Sc diur, vesp Ac trans]
+31.0 +26.0 75 +46 +53 опасность
перегрева
1008.9 1008.1
09 14.09 Ю 1 5000 м 6/5 480 м
[Sc diur, vesp Ac trans]
+32.5 +27.0 73 +51 +55 опасность
перегрева
1006.1 1005.3
12 14.09 Ю 1 5000 м 6/4 480 м
[Sc As op]
+29.5 +26.0 81 +44 +44 опасность
перегрева
1006.2 1005.4 +32.8
15 14.09 Ю 1 5000 м 3/3 480 м
[Sc]
+27.5 +27.0 97 +43 +43 опасность
перегрева
1008.4 1007.6
18 14.09 Ю 1 4500 м 3/1 480 м
[Sc Ci fib]
+27.5 +27.0 97 +43 +43 опасность
перегрева
1008.2 1007.4
21 14.09 Ю 1 4500 м мгла ясно +26.5 +26.0 97 +40 +40 очень
душно
1007.7 1006.9
00 15.09 штиль 0 4000 м мгла 1/1 480 м
[Sc]
+26.0 +26.0 100 +39 +39 очень
душно
1007.4 1006.6
03 15.09 Ю 1 5000 м 5/5 480 м
[Sc diur, vesp]
+30.6 +26.0 77 +46 +52 опасность
перегрева
1008.3 1007.5 +26.0
06 15.09 Ю 1 5000 м 5/5 480 м
[Sc diur, vesp]
+32.2 +24.0 62 +44 +55 опасность
перегрева
1007.1 1006.3
09 15.09 Ю 1 6000 м 6/5 480 м
[Sc diur, vesp As trans]
+33.5 +25.0 61 +47 +52 опасность
перегрева
1003.7 1002.9
12 15.09 Ю 1 4500 м 5/3 480 м
[Sc As trans]
+30.5 +26.0 77 +46 +46 опасность
перегрева
1004.6 1003.8 +34.0
15 15.09 Ю 1 4000 м 4/3 480 м
[Sc Ac trans]
+28.5 +26.0 86 +43 +43 опасность
перегрева
1006.7 1005.9
18 15.09 Ю 1 4500 м 1/1 480 м
[Sc]
+27.8 +27.0 95 +44 +44 опасность
перегрева
1006.8 1006.0
21 15.09 Ю 1 4000 м 8/4 480 м
[Sc As op]
+27.0 +26.0 94 +40 +40 очень
душно
1006.6 1005.8
00 16.09 Ю 1 3500 м 10/8 270 м
[St As op]
+27.0 +26.0 94 +40 +40 очень
душно
1006.5 1005.7
03 16.09 Ю 1 5000 м 6/5 480 м
[Sc Ac trans]
+30.5 +26.0 77 +46 +51 опасность
перегрева
1007.5 1006.7 +27.0
06 16.09 Ю 1 5000 м 6/5 300 м
[Sc Ac trans]
+33.5 +26.0 65 +49 +59 опасность
перегрева
1006.8 1006.0
09 16.09 Ю 1 5000 м 6/5 480 м
[Sc Ac trans]
+33.5 +25.0 61 +47 +52 опасность
перегрева
1003.7 1003.0
12 16.09 штиль 0 4000 м 6/4 480 м
[Sc Ac trans]
+29.9 +26.0 80 +45 +45 опасность
перегрева
1003.3 1002.5 +34.0
15 16.09 штиль 0 4000 м 4/0
[Ac trans]
+28.6 +27.0 91 +45 +45 опасность
перегрева
1006.6 1005.9
18 16.09 штиль 0 4000 м 4/0
[As op]
+28.2 +26.0 88 +42 +42 опасность
перегрева
1007.0 1006.3
21 16.09 штиль 0 4000 м 4/0
[Ac trans]
+27.2 +26.0 93 +41 +41 опасность
перегрева
1006.7 1006.0
00 17.09 штиль 0 4000 м 5/3 480 м
[Sc Ac trans]
+26.9 +26.0 95 +40 +40 очень
душно
1006.8 1006.1
03 17.09 Ю 1 5000 м 4/3 480 м
[Sc diur, vesp As op]
+30.2 +26.0 78 +45 +53 опасность
перегрева
1008.9 1008.2 +26.9
06 17.09 СЗ 1 4000 м 5/4 480 м
[Sc diur, vesp As op]
+32.3 +24.0 62 +44 +57 опасность
перегрева
1008.0 1007.3
09 17.09 штиль 0 5000 м 6/4 450 м
[Sc As op]
+32.7 +25.0 64 +46 +52 опасность
перегрева
1005.7 1005.0
12 17.09 штиль 0 4000 м 3/0
[Ac trans]
+31.2 +27.0 78 +49 +49 опасность
перегрева
1006.2 1005.5 +33.8
15 17.09 штиль 0 4000 м 3/0
[As op]
+29.0 +28.0 94 +48 +48 опасность
перегрева
1007.8 1007.1
18 17.09 штиль 0 4000 м ясно +28.2 +27.0 93 +44 +44 опасность
перегрева
1008.3 1007.6
00 18.09 ЮВ 2 3000 м 10/6 450 м
[St As op]
+24.7 +23.0 90 +33 +33 очень
душно
1010.0 1009.3

 

Местоположение метеостанции Фени (Бангладеш): широта 23.03 долгота 91.42 высота над уровнем моря 8 м.

В архиве по умолчанию представлена погода в Фени за последнюю неделю. Архивные данные за месяц целиком и за предыдущие месяцы, начиная с января 2011 года, Вы можете получить, выбрав интересующий диапазон дат из раскрывающегося списка и нажав кнопку "Ввод!".


*Определитесь, кто Вы:
робот инопланетянин человек

Внимание! Время в таблицах - всемирное. Для получения местного времени необходимо прибавить поправку, которая равна 6.5 ч.

Смотрите также архив погоды в соседних городах и на ближайших метеорологических станциях:

Погода в Маиидиcурте (Бангладеш) (37 км)
Погода в Комилле (Бангладеш) (51 км)
Погода в Ситакунду (Бангладеш) (58 км)
Погода в Сандвипе (Бангладеш) (61 км)
Погода в Хатии (Бангладеш) (74 км)
Погода в Чандпуре (Бангладеш) (78 км)
Погода в Бхоле (Бангладеш) (88 км)
Погода в Читтагонге (Бангладеш) (94 км)
Погода в Агартале (Трипура, Индия) (96 км)
Погода в Рангамати (Бангладеш) (97 км)

Пояснения к столбцам:

Ветер - указаны скорость ветра в м/с - средняя за 10 мин, порывы в срок и между сроками (в фигурных скобках) и направление, откуда дует ветер: С - северный, СВ - северо-восточный, В - восточный, ЮВ - юго-восточный, Ю - южный, ЮЗ - юго-западный, З - западный, СЗ - северо-западный.
Видимость - горизонтальная дальность видимости в метрах или километрах. При видимости от 1 до 10 км при отсутствии осадков обычно наблюдается дымка, при ухудшении видимости до 1 км и менее - туман. В сухую погоду видимость может ухудшаться дымом, пылью или мглою.
Явления - указаны атмосферные явления, наблюдавшиеся в срок или в последний час перед сроком; фигурными скобками обозначены явления, наблюдавшиеся между сроками (за 1-3 часа до срока); квадратными скобками обозначены град или гололедные отложения с указанием их диаметра в мм.
Облачность - указаны через наклонную черту общая и нижняя облачность в баллах и высота нижней границы облаков в метрах; квадратными скобками обозначены формы облаков: Ci - перистые, Cs - перисто-слоистые, Cc - перисто-кучевые, Ac - высококучевые, As - высокослоистые, Sc - слоисто-кучевые, Ns - слоисто-дождевые, Cu - кучевые, Cb - кучево-дождевые. Подробнее классификацию облаков см. в Атласе облаков (PDF).
T - Температура воздуха - температура, измеренная на высоте 2 м над землей.
Td - Температура точки росы - температура, при понижении до которой содержащийся в воздухе водяной пар достигнет насыщения.
f - Относительная влажность воздуха - влажноcть воздуха, измеренная на высоте 2 м над землей.
Te - Эффективная температура - температура, которую ощущает одетый по сезону человек в тени. Характеристика душности погоды. При расчете учитывается влияние влажности воздуха и скорости ветра на теплоощущения человека.
Tes - Эффективная температура на солнце - температура, которую ощущает человек, с поправкой на солнечный нагрев. Характеристика знойности погоды. Зависит от высоты солнца над горизонтом, облачности и скорости ветра. Ночью, в пасмурную погоду, а также при ветре 12 м/с и более поправка равна нулю.
P - Атмосферное давление - приведенное к уровню моря атмосферное давление.
Po - Атмосферное давление - измеренное на уровне метеостанции атмосферное давление.
Tmin - Минимальная температура - минимум температуры воздуха на высоте 2 м над землей.
Tmax - Максимальная температура - максимум температуры воздуха на высоте 2 м над землей.
R - Количество осадков - Количество выпавших осадков за период времени, мм. При наведении курсора мыши на число - период времени, за который выпало указанное количество осадков.
R24 - Количество осадков - Количество выпавших осадков за 24 часа, мм.
S - Снежный покров - Высота снежного покрова, см. При наведении курсора мыши на число - состояние снежного покрова и степень покрытия местности в баллах.